{"data":{"norad_id":63365,"intl_designator":"2025-063C","name":"STARLINK-33741","alt_names":[],"object_type":"PAYLOAD","status":"ACTIVE","operator":null,"country":"US","launch_date":"2025-03-26","launch_site_code":"AFWTR","launch_vehicle":null,"mission":null,"orbit_class":"UNKNOWN","rcs_meters":null,"size_class":null,"mass_kg":null,"dimensions":null,"purposes":["comms"],"wikipedia_slug":null,"has_3d_model":false,"image_url":null,"decayed_at":null,"tle_current":{"epoch":"2026-09-20T14:41:45.445920Z","epoch_age_seconds":149165,"freshness":"FRESH","line1":"1 63365U 25063C   26263.61233155  .00021509  00000+0  64570-3 0  9995","line2":"2 63365  53.1613 221.3418 0001276  78.6826 281.4320 15.34409522 84689","mean_motion":15.34409522,"eccentricity":0.0001276,"inclination_deg":53.1613,"raan_deg":221.3418,"arg_perigee_deg":78.6826,"mean_anomaly_deg":281.432,"bstar":0.0006457,"rev_number":8468,"period_min":93.847175695512,"perigee_km":461.80205135938,"apogee_km":463.5478265662,"semimajor_km":6840.8119389628,"source":"CELESTRAK","updated_at":"2026-09-21T09:00:34.972206Z"}}}